[[{"header":{"parameterUnit":"m.s-1","parameterCategory":1,"la1":30.2991,"la2":30.254,"lo1":-89.0895,"lo2":-89.0444,"dy":0.0017,"dx":0.0017,"nx":28,"ny":28,"refTime":"2024-07-06T09:00:00:Z","depth":0,"parameterNumber":2,"parameterNumberName":"U-component_of_WINDS"},"data":[0,0,0,0,0,0,0,0,0,0,0,0,0,0,0,0,0,0,0,0,0,0,0,0,0,0,0,0,0,0,0,0,0,0,0,0,0,0,0,0,0,0,0,0,0,0,0,0,0,0,0,0,0,0,0,0,0,0,-1.2683,-1.2684,0,-1.2759,-1.276,-1.2761,-1.2821,-1.2821,-1.2822,-1.2823,-1.2896,-1.2898,-1.2899,0,0,0,0,0,0,0,0,0,0,0,0,0,-1.2586,-1.2587,-1.2683,-1.2684,-1.2685,-1.2759,-1.276,-1.2761,-1.2821,-1.2821,-1.2822,-1.2823,-1.2896,-1.2898,-1.2899,0,0,0,0,0,0,0,0,0,0,0,0,0,-1.2641,-1.2588,-1.2683,-1.2724,-1.2728,-1.2759,-1.276,-1.2761,-1.2821,-1.2821,-1.2822,-1.2823,-1.2895,-1.2897,-1.2899,-1.2894,0,0,-1.2906,-1.2907,0,0,0,0,0,0,0,0,-1.2638,-1.2645,-1.2717,-1.2721,-1.2726,-1.2781,-1.2753,-1.2806,-1.282,-1.2785,-1.2823,-1.2824,-1.2857,-1.2862,-1.2875,-1.2898,-1.2901,-1.2906,-1.2907,-1.2908,-1.2909,0,0,0,0,0,0,0,-1.2634,-1.2642,-1.2713,-1.2718,-1.2723,-1.2737,-1.2746,-1.2763,-1.2815,-1.2788,-1.2793,-1.2801,-1.286,-1.2872,-1.2877,-1.2902,-1.2906,-1.2908,-1.2909,-1.291,-1.2924,-1.2924,0,0,0,0,0,0,-1.2625,-1.2638,-1.271,-1.2715,-1.2683,-1.2738,-1.2748,-1.2763,-1.2815,-1.2824,-1.2801,-1.2804,-1.2868,-1.2874,-1.288,-1.2876,-1.2908,-1.291,-1.2911,-1.2925,-1.2924,-1.2923,0,0,0,0,0,0,-1.2622,-1.263,-1.2707,-1.2678,-1.2689,-1.2739,-1.2755,-1.2764,-1.2776,-1.2824,-1.2833,-1.2804,-1.2869,-1.2877,-1.289,-1.2879,-1.2911,-1.2913,-1.2926,-1.2925,-1.2924,-1.2869,0,0,0,0,0,0,-1.2619,-1.2629,-1.2628,-1.2678,-1.269,-1.2717,-1.2754,-1.2764,-1.278,-1.2785,-1.283,-1.2838,-1.2871,-1.2887,-1.2892,-1.2883,-1.2915,-1.2928,-1.2926,-1.2924,-1.2872,-1.2866,-1.2861,0,0,0,0,0,-1.2615,-1.2609,-1.2628,-1.2636,-1.269,-1.2717,-1.2724,-1.2762,-1.2779,-1.2778,-1.2809,-1.2837,-1.2881,-1.2888,-1.2895,-1.2885,-1.2928,-1.2926,-1.2924,-1.2875,-1.2867,-1.2861,0,0,0,0,0,0,-1.2555,-1.2616,-1.2638,-1.2647,-1.2677,-1.2727,-1.2727,-1.2754,-1.2778,-1.2781,-1.2827,-1.2837,-1.2845,-1.2867,-1.2874,-1.2883,-1.2908,-1.2907,-1.2868,-1.2861,-1.2856,-1.2849,-1.2916,0,0,0,0,0,-1.2544,-1.2561,-1.2613,-1.2616,-1.263,-1.2676,-1.2689,-1.2716,-1.2748,-1.276,-1.2792,-1.282,-1.2841,-1.2853,-1.2874,-1.2877,-1.2886,-1.2874,-1.2868,-1.2864,-1.2861,-1.2864,-1.2858,-1.2917,-1.2917,-1.2917,0,0,-1.2518,-1.2554,-1.2562,-1.2605,-1.2631,-1.2647,-1.2686,-1.2701,-1.2713,-1.2762,-1.2777,-1.2802,-1.2836,-1.2844,-1.2849,-1.2863,-1.2848,-1.2861,-1.2857,-1.2857,-1.2861,-1.2855,-1.285,-1.2916,-1.2916,-1.2916,0,0,-1.248,-1.251,-1.2516,-1.2541,-1.2581,-1.2612,-1.2613,-1.266,-1.2678,-1.2695,-1.2732,-1.2747,-1.2781,-1.2804,-1.282,-1.2793,-1.2818,-1.2798,-1.2768,-1.277,-1.2765,-1.2761,-1.2749,-1.2745,-1.2797,-1.2797,-1.2797,0,-1.2443,-1.247,-1.2515,-1.2528,-1.2545,-1.2593,-1.2598,-1.2621,-1.2664,-1.2675,-1.269,-1.2734,-1.2761,-1.2775,-1.2768,-1.2781,-1.2782,-1.2792,-1.2762,-1.2759,-1.2756,-1.2745,-1.2741,-1.2794,-1.2794,-1.2794,-1.2795,0,-1.2422,-1.244,-1.244,-1.2482,-1.25,-1.2509,-1.2554,-1.2567,-1.2593,-1.2622,-1.2638,-1.2672,-1.2701,-1.2707,-1.2733,-1.2724,-1.2731,-1.2754,-1.2779,-1.2747,-1.2737,-1.2734,-1.279,-1.2791,-1.2792,-1.2792,0,0,-1.2344,-1.2414,-1.2412,-1.2432,-1.248,-1.2494,-1.2506,-1.2536,-1.2544,-1.2574,-1.2583,-1.2612,-1.2634,-1.2652,-1.2681,-1.2683,-1.2657,-1.2706,-1.2707,-1.2693,-1.2648,-1.2628,-1.2623,-1.2676,-1.2676,-1.2675,-1.2644,0,-1.2312,-1.2335,-1.2377,-1.2386,-1.2403,-1.245,-1.246,-1.249,-1.2517,-1.2535,-1.2566,-1.2584,-1.2613,-1.2624,-1.2628,-1.2659,-1.2648,-1.2663,-1.2683,-1.2683,-1.2669,-1.2618,-1.2597,-1.2566,-1.2641,-1.2641,-1.264,0,-1.2276,-1.2304,-1.2315,-1.2363,-1.2371,-1.2379,-1.241,-1.2427,-1.2462,-1.2482,-1.2503,-1.2536,-1.2549,-1.2575,-1.2593,-1.2602,-1.2613,-1.263,-1.263,-1.263,-1.2657,-1.2615,-1.2558,-1.2552,-1.2635,-1.2636,-1.2636,0,-1.2215,-1.2256,-1.2268,-1.2284,-1.234,-1.2344,-1.2368,-1.2404,-1.2419,-1.2446,-1.2457,-1.2485,-1.2499,-1.2519,-1.2558,-1.2574,-1.2572,-1.2601,-1.2587,-1.2585,-1.2581,-1.258,-1.2522,-1.2594,-1.2594,-1.2594,-1.2594,0,-1.2172,-1.2176,-1.2241,-1.2248,-1.2254,-1.2303,-1.2307,-1.2335,-1.2367,-1.238,-1.2423,-1.2433,-1.2486,-1.2502,-1.2533,-1.2542,-1.2549,-1.2565,-1.2572,-1.2559,-1.2556,-1.2564,-1.2566,-1.2593,-1.2593,-1.2593,-1.2593,0,-1.2103,-1.2147,-1.2162,-1.2216,-1.2229,-1.2231,-1.2276,-1.2284,-1.2316,-1.2331,-1.2338,-1.2387,-1.2409,-1.2451,-1.2484,-1.2505,-1.2506,-1.2522,-1.2494,-1.2498,-1.2481,-1.2481,-1.2423,-1.2417,-1.2495,-1.2494,-1.2494,0,-1.207,-1.2075,-1.2129,-1.2142,-1.2164,-1.2183,-1.2199,-1.2248,-1.2263,-1.2304,-1.2307,-1.2333,-1.2355,-1.2388,-1.2426,-1.2451,-1.2466,-1.2444,-1.2469,-1.2456,-1.2462,-1.246,-1.2459,-1.2436,-1.2435,-1.2434,-1.2434,0,-1.2007,-1.203,-1.2052,-1.2083,-1.2102,-1.2128,-1.2156,-1.2164,-1.2218,-1.2233,-1.2257,-1.2275,-1.231,-1.2334,-1.2365,-1.2389,-1.2419,-1.2426,-1.2424,-1.2408,-1.2391,-1.2397,-1.2475,-1.2426,-1.2427,-1.2427,-1.2428,-1.2428,-1.1954,-1.196,-1.1999,-1.2023,-1.205,-1.2076,-1.2086,-1.2121,-1.2142,-1.2174,-1.2202,-1.2223,-1.2259,-1.2305,-1.2327,-1.2343,-1.2358,-1.2355,-1.2353,-1.2351,-1.2344,-1.2392,-1.2349,-1.235,-1.235,-1.235,-1.235,0,-1.189,-1.1919,-1.1941,-1.198,-1.1998,-1.203,-1.2063,-1.2076,-1.2094,-1.2126,-1.2148,-1.2175,-1.22,-1.2241,-1.2268,-1.2273,-1.2288,-1.2278,-1.2276,-1.2281,-1.2331,-1.2329,-1.2266,-1.2266,-1.2266,-1.2266,-1.2266,-1.2266,-1.1859,-1.1871,-1.1898,-1.1923,-1.1952,-1.1974,-1.199,-1.2014,-1.2039,-1.2068,-1.2089,-1.2117,-1.2152,-1.2183,-1.2206,-1.2218,-1.2224,-1.221,-1.2225,-1.227,-1.2278,-1.2285,-1.2283,-1.2212,-1.2211,-1.2173,-1.2173,-1.2173]},{"header":{"parameterUnit":"m.s-1","parameterCategory":1,"la1":30.2991,"la2":30.254,"lo1":-89.0895,"lo2":-89.0444,"dy":0.0017,"dx":0.0017,"nx":28,"ny":28,"refTime":"2024-07-06T09:00:00:Z","depth":0,"parameterNumber":3,"parameterNumberName":"V-component_of_WINDS"},"data":[0,0,0,0,0,0,0,0,0,0,0,0,0,0,0,0,0,0,0,0,0,0,0,0,0,0,0,0,0,0,0,0,0,0,0,0,0,0,0,0,0,0,0,0,0,0,0,0,0,0,0,0,0,0,0,0,0,0,-0.2453,-0.2453,0,-0.2425,-0.2425,-0.2425,-0.2453,-0.2455,-0.2456,-0.2457,-0.2429,-0.2427,-0.2425,0,0,0,0,0,0,0,0,0,0,0,0,0,-0.2531,-0.253,-0.2453,-0.2453,-0.2452,-0.2425,-0.2425,-0.2424,-0.2453,-0.2455,-0.2456,-0.2457,-0.243,-0.2427,-0.2425,0,0,0,0,0,0,0,0,0,0,0,0,0,-0.25,-0.2529,-0.2453,-0.2463,-0.2464,-0.2425,-0.2425,-0.2424,-0.2453,-0.2455,-0.2456,-0.2458,-0.243,-0.2428,-0.2425,-0.2375,0,0,-0.2417,-0.2416,0,0,0,0,0,0,0,0,-0.2502,-0.2497,-0.2462,-0.2463,-0.2463,-0.2444,-0.2442,-0.2408,-0.2453,-0.2457,-0.2457,-0.2459,-0.2433,-0.243,-0.2421,-0.2374,-0.2372,-0.2417,-0.2415,-0.2414,-0.2413,0,0,0,0,0,0,0,-0.2504,-0.2498,-0.2442,-0.2462,-0.2462,-0.247,-0.2467,-0.2436,-0.2436,-0.2457,-0.2459,-0.2455,-0.2433,-0.2424,-0.2421,-0.2372,-0.2417,-0.2414,-0.2413,-0.2412,-0.2282,-0.228,0,0,0,0,0,0,-0.2505,-0.25,-0.2443,-0.2441,-0.2487,-0.2467,-0.2464,-0.2449,-0.2436,-0.2436,-0.2454,-0.2457,-0.2427,-0.2424,-0.242,-0.236,-0.2414,-0.2411,-0.241,-0.2283,-0.2281,-0.2279,0,0,0,0,0,0,-0.2506,-0.2499,-0.2444,-0.2471,-0.2465,-0.2464,-0.2447,-0.2447,-0.2438,-0.2434,-0.2434,-0.2444,-0.2429,-0.2424,-0.2386,-0.2359,-0.241,-0.2408,-0.2286,-0.2283,-0.228,-0.2239,0,0,0,0,0,0,-0.2508,-0.25,-0.2481,-0.247,-0.2463,-0.241,-0.2445,-0.2446,-0.2433,-0.2436,-0.2425,-0.2424,-0.243,-0.239,-0.2383,-0.2356,-0.2406,-0.2288,-0.2284,-0.2281,-0.2243,-0.2236,-0.2229,0,0,0,0,0,-0.2511,-0.247,-0.2479,-0.2472,-0.2439,-0.2408,-0.2404,-0.2411,-0.2431,-0.2411,-0.2409,-0.2425,-0.2363,-0.2385,-0.2378,-0.235,-0.229,-0.2285,-0.2281,-0.2246,-0.2237,-0.2229,0,0,0,0,0,0,-0.2478,-0.2469,-0.2479,-0.2434,-0.2422,-0.2413,-0.2389,-0.2401,-0.2383,-0.2387,-0.2396,-0.2393,-0.2353,-0.2348,-0.2373,-0.2301,-0.233,-0.2324,-0.2305,-0.2297,-0.229,-0.2291,-0.2403,0,0,0,0,0,-0.2465,-0.2441,-0.2435,-0.2395,-0.2389,-0.239,-0.2377,-0.2383,-0.2371,-0.2366,-0.2361,-0.2348,-0.2326,-0.2312,-0.2291,-0.2243,-0.2241,-0.222,-0.2213,-0.2208,-0.2202,-0.2176,-0.2167,-0.2266,-0.2266,-0.2266,0,0,-0.2438,-0.2431,-0.2415,-0.2388,-0.238,-0.2354,-0.2385,-0.2357,-0.2338,-0.2362,-0.2325,-0.2321,-0.2308,-0.2264,-0.2245,-0.2259,-0.2175,-0.2202,-0.2198,-0.2196,-0.2171,-0.2161,-0.2153,-0.2263,-0.2263,-0.2264,0,0,-0.2377,-0.2369,-0.2335,-0.2325,-0.2312,-0.2313,-0.2305,-0.2294,-0.2292,-0.2256,-0.2273,-0.2251,-0.2213,-0.2203,-0.2192,-0.2127,-0.2141,-0.212,-0.2083,-0.2058,-0.205,-0.2043,-0.2019,-0.201,-0.2115,-0.2115,-0.2115,0,-0.2345,-0.2308,-0.2316,-0.2286,-0.2274,-0.2294,-0.2259,-0.225,-0.223,-0.2221,-0.2238,-0.219,-0.2183,-0.2137,-0.2121,-0.2112,-0.2103,-0.2121,-0.205,-0.2043,-0.2037,-0.2014,-0.2005,-0.2113,-0.2113,-0.2113,-0.2113,0,-0.2269,-0.2243,-0.2217,-0.2197,-0.2182,-0.215,-0.2154,-0.2138,-0.2146,-0.2145,-0.2108,-0.21,-0.2077,-0.2067,-0.2075,-0.2022,-0.2031,-0.2049,-0.2078,-0.2025,-0.2004,-0.1995,-0.2109,-0.211,-0.2111,-0.2111,0,0,-0.2185,-0.217,-0.216,-0.2151,-0.2138,-0.2117,-0.2087,-0.2065,-0.2051,-0.2037,-0.2011,-0.1978,-0.1994,-0.1983,-0.1989,-0.1967,-0.1914,-0.1987,-0.1987,-0.1973,-0.1855,-0.1841,-0.1831,-0.1924,-0.1922,-0.1921,-0.1856,0,-0.2122,-0.2068,-0.2075,-0.2023,-0.1998,-0.2017,-0.199,-0.1979,-0.1978,-0.1957,-0.1956,-0.1932,-0.1956,-0.1949,-0.1927,-0.1925,-0.1891,-0.193,-0.1899,-0.1898,-0.1901,-0.182,-0.1805,-0.1744,-0.1848,-0.1846,-0.1845,0,-0.2041,-0.2024,-0.1969,-0.1959,-0.1949,-0.1925,-0.1905,-0.1885,-0.1873,-0.1874,-0.1861,-0.1872,-0.1841,-0.1871,-0.1828,-0.1855,-0.1843,-0.184,-0.1838,-0.1834,-0.1868,-0.1813,-0.1725,-0.1715,-0.1832,-0.1834,-0.1834,0,-0.1983,-0.1947,-0.1909,-0.1901,-0.1889,-0.1871,-0.1865,-0.1855,-0.1841,-0.1824,-0.1816,-0.1796,-0.1784,-0.1769,-0.1774,-0.1795,-0.173,-0.1761,-0.1729,-0.1729,-0.1713,-0.1714,-0.1621,-0.1708,-0.1708,-0.1708,-0.1708,0,-0.1912,-0.1878,-0.1883,-0.186,-0.1822,-0.1831,-0.1793,-0.179,-0.178,-0.1757,-0.1772,-0.175,-0.1758,-0.1737,-0.1741,-0.1704,-0.17,-0.1699,-0.17,-0.1697,-0.1697,-0.1688,-0.1692,-0.1705,-0.1706,-0.1706,-0.1707,0,-0.184,-0.1843,-0.1803,-0.1795,-0.1792,-0.1764,-0.1757,-0.1735,-0.1736,-0.1706,-0.1699,-0.17,-0.1675,-0.1679,-0.1651,-0.1654,-0.1608,-0.1616,-0.1612,-0.1613,-0.1581,-0.1584,-0.1478,-0.1465,-0.1561,-0.156,-0.156,0,-0.1794,-0.1768,-0.1756,-0.1742,-0.1734,-0.1711,-0.1697,-0.1705,-0.1689,-0.1674,-0.1654,-0.163,-0.1612,-0.1571,-0.1569,-0.1549,-0.1554,-0.1519,-0.1551,-0.1549,-0.1553,-0.1554,-0.1551,-0.1512,-0.1511,-0.151,-0.1509,0,-0.171,-0.1713,-0.1692,-0.1672,-0.1655,-0.1639,-0.1625,-0.1612,-0.1619,-0.1601,-0.1576,-0.1561,-0.1533,-0.151,-0.149,-0.1485,-0.1497,-0.15,-0.1491,-0.1486,-0.1485,-0.1484,-0.1593,-0.1502,-0.1502,-0.1503,-0.1503,-0.1504,-0.1649,-0.1627,-0.1615,-0.1591,-0.1582,-0.1568,-0.1547,-0.1545,-0.1524,-0.1501,-0.1508,-0.1479,-0.1467,-0.1442,-0.1435,-0.1412,-0.1425,-0.1413,-0.141,-0.1406,-0.1402,-0.149,-0.1409,-0.1409,-0.1409,-0.141,-0.141,0,-0.1565,-0.1559,-0.1537,-0.1517,-0.1498,-0.1513,-0.1498,-0.1482,-0.1456,-0.1444,-0.1426,-0.1397,-0.1374,-0.137,-0.1349,-0.1331,-0.1337,-0.1325,-0.1326,-0.1324,-0.1392,-0.1401,-0.1321,-0.1321,-0.1321,-0.1321,-0.1321,-0.1321,-0.152,-0.1482,-0.1483,-0.1441,-0.1435,-0.1407,-0.1397,-0.1385,-0.1375,-0.1342,-0.1323,-0.1321,-0.1312,-0.129,-0.127,-0.127,-0.1261,-0.1246,-0.1248,-0.1311,-0.132,-0.1328,-0.1337,-0.1245,-0.1245,-0.1182,-0.1182,-0.1181]}]]